| time (UTC) | temp C | wind direction | speed KPH | gust KPH | rain 1hr cm | rain 24hr cm | rain mn cm | humidity % | barometer mb |
| 20260506041524 | 20 | 158 | 12.9 | 17.7 | 0.00 | 0.00 | 0.00 | 45 | 1008.6 |
| 20260506041044 | 20 | 172 | 12.9 | 17.7 | 0.00 | 0.00 | 0.00 | 44 | 1008.7 |
| 20260506040543 | 20 | 175 | 11.3 | 16.1 | 0.00 | 0.00 | 0.00 | 44 | 1008.6 |
| 20260506040041 | 20 | 154 | 9.7 | 16.1 | 0.00 | 0.00 | 0.00 | 44 | 1008.6 |
| 20260506035539 | 20 | 153 | 6.4 | 8.0 | 0.00 | 0.00 | 0.00 | 44 | 1008.5 |
| 20260506035033 | 20 | 142 | 6.4 | 8.0 | 0.00 | 0.00 | 0.00 | 44 | 1008.4 |
| 20260506034525 | 20 | 149 | 4.8 | 8.0 | 0.00 | 0.00 | 0.00 | 45 | 1008.4 |
| 20260506034105 | 20 | 165 | 6.4 | 11.3 | 0.00 | 0.00 | 0.00 | 44 | 1008.4 |
| 20260506033541 | 20 | 167 | 8.0 | 11.3 | 0.00 | 0.00 | 0.00 | 44 | 1008.6 |
| 20260506033041 | 20 | 157 | 8.0 | 11.3 | 0.00 | 0.00 | 0.00 | 44 | 1008.6 |
| 20260506032534 | 20 | 173 | 8.0 | 11.3 | 0.00 | 0.00 | 0.00 | 43 | 1008.5 |
| 20260506032024 | 20 | 174 | 8.0 | 9.7 | 0.00 | 0.00 | 0.00 | 44 | 1008.5 |
| 20260506031539 | 20 | 170 | 8.0 | 11.3 | 0.00 | 0.00 | 0.00 | 44 | 1008.4 |
| 20260506031038 | 20 | 160 | 8.0 | 11.3 | 0.00 | 0.00 | 0.00 | 43 | 1008.4 |
| 20260506030531 | 20 | 145 | 8.0 | 11.3 | 0.00 | 0.00 | 0.00 | 43 | 1008.4 |
| 20260506030027 | 20 | 150 | 6.4 | 11.3 | 0.00 | 0.00 | 0.00 | 43 | 1008.4 |
| 20260506025544 | 20 | 161 | 4.8 | 11.3 | 0.00 | 0.00 | 0.00 | 43 | 1008.4 |
| 20260506025039 | 20 | 146 | 6.4 | 12.9 | 0.00 | 0.00 | 0.00 | 43 | 1008.5 |
| 20260506024558 | 21 | 159 | 9.7 | 14.5 | 0.00 | 0.00 | 0.00 | 41 | 1008.6 |
| 20260506024033 | 21 | 165 | 11.3 | 14.5 | 0.00 | 0.00 | 0.00 | 41 | 1008.5 |
| 20260506023524 | 21 | 168 | 9.7 | 14.5 | 0.00 | 0.00 | 0.00 | 40 | 1008.5 |
| 20260506023045 | 21 | 153 | 8.0 | 16.1 | 0.00 | 0.00 | 0.00 | 41 | 1008.4 |
| 20260506022542 | 21 | 173 | 9.7 | 12.9 | 0.00 | 0.00 | 0.00 | 40 | 1008.5 |
| 20260506022043 | 21 | 161 | 11.3 | 16.1 | 0.00 | 0.00 | 0.00 | 39 | 1008.6 |
| 20260506021540 | 21 | 162 | 12.9 | 17.7 | 0.00 | 0.00 | 0.00 | 39 | 1008.5 |
| 20260506021034 | 22 | 167 | 12.9 | 17.7 | 0.00 | 0.00 | 0.00 | 39 | 1008.5 |
| 20260506020525 | 22 | 162 | 14.5 | 20.9 | 0.00 | 0.00 | 0.00 | 38 | 1008.4 |
| 20260506020044 | 22 | 161 | 16.1 | 20.9 | 0.00 | 0.00 | 0.00 | 39 | 1008.4 |
| 20260506015541 | 22 | 186 | 17.7 | 20.9 | 0.00 | 0.00 | 0.00 | 39 | 1008.4 |
| 20260506015037 | 22 | 165 | 17.7 | 20.9 | 0.00 | 0.00 | 0.00 | 39 | 1008.4 |
| 20260506014533 | 22 | 173 | 16.1 | 22.5 | 0.00 | 0.00 | 0.00 | 39 | 1008.4 |
| 20260506014026 | 22 | 151 | 16.1 | 20.9 | 0.00 | 0.00 | 0.00 | 40 | 1008.2 |
| 20260506013541 | 22 | 167 | 14.5 | 20.9 | 0.00 | 0.00 | 0.00 | 40 | 1008.3 |
| 20260506013034 | 22 | 159 | 14.5 | 22.5 | 0.00 | 0.00 | 0.00 | 40 | 1008.2 |
| 20260506012525 | 22 | 158 | 14.5 | 19.3 | 0.00 | 0.00 | 0.00 | 40 | 1008.0 |
| 20260506012038 | 22 | 148 | 12.9 | 17.7 | 0.00 | 0.00 | 0.00 | 40 | 1008.0 |
| 20260506011532 | 22 | 178 | 14.5 | 19.3 | 0.00 | 0.00 | 0.00 | 40 | 1008.0 |
| 20260506011026 | 22 | 169 | 12.9 | 20.9 | 0.00 | 0.00 | 0.00 | 41 | 1007.8 |
| 20260506010543 | 22 | 169 | 9.7 | 14.5 | 0.00 | 0.00 | 0.00 | 41 | 1007.8 |
| 20260506010044 | 22 | 155 | 9.7 | 14.5 | 0.00 | 0.00 | 0.00 | 40 | 1007.8 |
| 20260506005542 | 22 | 180 | 9.7 | 12.9 | 0.00 | 0.00 | 0.00 | 40 | 1007.7 |
| 20260506005042 | 22 | 165 | 9.7 | 14.5 | 0.00 | 0.00 | 0.00 | 39 | 1007.7 |
| 20260506004540 | 22 | 188 | 8.0 | 11.3 | 0.00 | 0.00 | 0.00 | 39 | 1007.7 |
| 20260506004036 | 23 | 171 | 9.7 | 12.9 | 0.00 | 0.00 | 0.00 | 39 | 1007.8 |
| 20260506003531 | 23 | 167 | 9.7 | 12.9 | 0.00 | 0.00 | 0.00 | 39 | 1007.7 |
| 20260506003026 | 23 | 176 | 9.7 | 14.5 | 0.00 | 0.00 | 0.00 | 39 | 1007.7 |
| 20260506002537 | 23 | 182 | 9.7 | 14.5 | 0.00 | 0.00 | 0.00 | 38 | 1007.5 |
| 20260506002039 | 23 | 166 | 12.9 | 17.7 | 0.00 | 0.00 | 0.00 | 38 | 1007.5 |
| 20260506001530 | 23 | 175 | 12.9 | 17.7 | 0.00 | 0.00 | 0.00 | 38 | 1007.4 |
| 20260506001026 | 23 | 188 | 12.9 | 25.7 | 0.00 | 0.00 | 0.00 | 37 | 1007.4 |
| 20260506000543 | 24 | 187 | 14.5 | 24.1 | 0.00 | 0.00 | 0.00 | 37 | 1007.3 |
| 20260506000034 | 24 | 183 | 14.5 | 24.1 | 0.00 | 0.00 | 0.00 | 37 | 1007.3 |
| 20260505235525 | 24 | 167 | 16.1 | 22.5 | 0.00 | 0.00 | 0.00 | 36 | 1007.2 |
| 20260505235045 | 24 | 161 | 16.1 | 22.5 | 0.00 | 0.00 | 0.00 | 37 | 1007.1 |
| 20260505234538 | 25 | 182 | 16.1 | 29.0 | 0.00 | 0.00 | 0.00 | 36 | 1007.1 |
| 20260505234030 | 25 | 161 | 17.7 | 29.0 | 0.00 | 0.00 | 0.00 | 36 | 1007.0 |
| 20260505233543 | 25 | 169 | 17.7 | 25.7 | 0.00 | 0.00 | 0.00 | 36 | 1007.0 |
| 20260505233043 | 25 | 154 | 19.3 | 27.4 | 0.00 | 0.00 | 0.00 | 36 | 1007.1 |
| 20260505232530 | 25 | 165 | 17.7 | 27.4 | 0.00 | 0.00 | 0.00 | 36 | 1007.1 |
| 20260505232026 | 25 | 194 | 19.3 | 27.4 | 0.00 | 0.00 | 0.00 | 36 | 1007.0 |
| 20260505231539 | 25 | 177 | 20.9 | 27.4 | 0.00 | 0.00 | 0.00 | 36 | 1007.0 |
| 20260505231035 | 25 | 160 | 19.3 | 32.2 | 0.00 | 0.00 | 0.00 | 36 | 1007.0 |
| 20260505230526 | 25 | 175 | 16.1 | 30.6 | 0.00 | 0.00 | 0.00 | 36 | 1006.8 |
| 20260505230044 | 25 | 186 | 17.7 | 27.4 | 0.00 | 0.00 | 0.00 | 36 | 1006.9 |
| 20260505225536 | 25 | 182 | 19.3 | 33.8 | 0.00 | 0.00 | 0.00 | 35 | 1006.9 |
| 20260505225041 | 25 | 171 | 17.7 | 33.8 | 0.00 | 0.00 | 0.00 | 36 | 1007.0 |
| 20260505224541 | 26 | 190 | 19.3 | 32.2 | 0.00 | 0.00 | 0.00 | 35 | 1006.9 |
| 20260505224037 | 26 | 155 | 20.9 | 29.0 | 0.00 | 0.00 | 0.00 | 34 | 1006.9 |
| 20260505223529 | 26 | 178 | 19.3 | 37.0 | 0.00 | 0.00 | 0.00 | 33 | 1006.8 |
| 20260505223025 | 26 | 188 | 19.3 | 38.6 | 0.00 | 0.00 | 0.00 | 32 | 1006.9 |
| 20260505222531 | 26 | 187 | 27.4 | 40.2 | 0.00 | 0.00 | 0.00 | 31 | 1006.9 |
| 20260505222044 | 26 | 184 | 22.5 | 40.2 | 0.00 | 0.00 | 0.00 | 29 | 1006.9 |
| 20260505221529 | 26 | 187 | 24.1 | 40.2 | 0.00 | 0.00 | 0.00 | 29 | 1006.8 |
| 20260505221043 | 26 | 196 | 24.1 | 40.2 | 0.00 | 0.00 | 0.00 | 29 | 1006.8 |
| 20260505220535 | 26 | 174 | 30.6 | 41.8 | 0.00 | 0.00 | 0.00 | 28 | 1006.9 |
| 20260505220027 | 27 | 186 | 30.6 | 41.8 | 0.00 | 0.00 | 0.00 | 28 | 1006.9 |
| 20260505215540 | 27 | 198 | 25.7 | 53.1 | 0.00 | 0.00 | 0.00 | 29 | 1006.9 |
| 20260505215035 | 27 | 182 | 29.0 | 53.1 | 0.00 | 0.00 | 0.00 | 29 | 1006.8 |
| 20260505214526 | 27 | 185 | 25.7 | 38.6 | 0.00 | 0.00 | 0.00 | 29 | 1006.8 |
| 20260505214047 | 27 | 175 | 22.5 | 32.2 | 0.00 | 0.00 | 0.00 | 29 | 1006.8 |
| 20260505213603 | 28 | 189 | 24.1 | 41.8 | 0.00 | 0.00 | 0.00 | 29 | 1006.8 |
| 20260505213043 | 28 | 223 | 20.9 | 45.1 | 0.00 | 0.00 | 0.00 | 29 | 1006.8 |
| 20260505212600 | 28 | 184 | 24.1 | 45.1 | 0.00 | 0.00 | 0.00 | 30 | 1006.8 |
| 20260505212036 | 28 | 192 | 24.1 | 37.0 | 0.00 | 0.00 | 0.00 | 29 | 1006.7 |
| 20260505211528 | 28 | 188 | 20.9 | 45.1 | 0.00 | 0.00 | 0.00 | 30 | 1006.7 |
| 20260505211044 | 28 | 174 | 29.0 | 45.1 | 0.00 | 0.00 | 0.00 | 30 | 1006.7 |
| 20260505210537 | 28 | 157 | 29.0 | 41.8 | 0.00 | 0.00 | 0.00 | 30 | 1006.8 |
| 20260505210036 | 28 | 170 | 30.6 | 38.6 | 0.00 | 0.00 | 0.00 | 29 | 1006.7 |
| 20260505205526 | 28 | 176 | 16.1 | 38.6 | 0.00 | 0.00 | 0.00 | 31 | 1006.7 |
| 20260505205044 | 28 | 171 | 22.5 | 43.5 | 0.00 | 0.00 | 0.00 | 30 | 1006.7 |
| 20260505204536 | 28 | 169 | 32.2 | 43.5 | 0.00 | 0.00 | 0.00 | 29 | 1006.9 |
| 20260505204033 | 28 | 170 | 24.1 | 40.2 | 0.00 | 0.00 | 0.00 | 30 | 1006.8 |
| 20260505203526 | 28 | 184 | 24.1 | 40.2 | 0.00 | 0.00 | 0.00 | 32 | 1006.8 |
| 20260505203044 | 28 | 163 | 24.1 | 38.6 | 0.00 | 0.00 | 0.00 | 32 | 1006.8 |
| 20260505202542 | 28 | 192 | 24.1 | 38.6 | 0.00 | 0.00 | 0.00 | 31 | 1006.8 |
| 20260505202039 | 28 | 184 | 29.0 | 41.8 | 0.00 | 0.00 | 0.00 | 31 | 1006.9 |
| 20260505201558 | 28 | 190 | 20.9 | 41.8 | 0.00 | 0.00 | 0.00 | 31 | 1006.7 |
| 20260505201034 | 28 | 178 | 24.1 | 45.1 | 0.00 | 0.00 | 0.00 | 31 | 1006.9 |
| 20260505200526 | 28 | 197 | 16.1 | 40.2 | 0.00 | 0.00 | 0.00 | 32 | 1006.9 |
| 20260505200043 | 28 | 205 | 27.4 | 38.6 | 0.00 | 0.00 | 0.00 | 32 | 1006.9 |
| 20260505195542 | 28 | 159 | 27.4 | 41.8 | 0.00 | 0.00 | 0.00 | 32 | 1007.0 |
| 20260505195043 | 28 | 185 | 27.4 | 41.8 | 0.00 | 0.00 | 0.00 | 32 | 1007.1 |
| 20260505194536 | 28 | 182 | 27.4 | 41.8 | 0.00 | 0.00 | 0.00 | 32 | 1007.2 |
| 20260505194027 | 28 | 186 | 29.0 | 41.8 | 0.00 | 0.00 | 0.00 | 32 | 1007.3 |
| 20260505193526 | 28 | 172 | 32.2 | 41.8 | 0.00 | 0.00 | 0.00 | 32 | 1007.3 |
| 20260505193046 | 28 | 159 | 27.4 | 41.8 | 0.00 | 0.00 | 0.00 | 32 | 1007.5 |
| 20260505192542 | 28 | 166 | 14.5 | 32.2 | 0.00 | 0.00 | 0.00 | 33 | 1007.5 |
| 20260505192038 | 28 | 190 | 19.3 | 33.8 | 0.00 | 0.00 | 0.00 | 32 | 1007.6 |
| 20260505191529 | 28 | 232 | 19.3 | 40.2 | 0.00 | 0.00 | 0.00 | 33 | 1007.6 |
| 20260505191049 | 28 | 180 | 25.7 | 40.2 | 0.00 | 0.00 | 0.00 | 32 | 1007.6 |
| 20260505190543 | 28 | 180 | 24.1 | 37.0 | 0.00 | 0.00 | 0.00 | 32 | 1007.7 |
| 20260505190038 | 28 | 178 | 17.7 | 35.4 | 0.00 | 0.00 | 0.00 | 34 | 1007.7 |
| 20260505185533 | 28 | 194 | 24.1 | 35.4 | 0.00 | 0.00 | 0.00 | 33 | 1007.8 |
| 20260505185029 | 28 | 163 | 22.5 | 35.4 | 0.00 | 0.00 | 0.00 | 33 | 1007.7 |
| 20260505184543 | 28 | 186 | 20.9 | 35.4 | 0.00 | 0.00 | 0.00 | 34 | 1007.8 |
| 20260505184042 | 28 | 196 | 20.9 | 41.8 | 0.00 | 0.00 | 0.00 | 34 | 1007.9 |
| 20260505183538 | 28 | 171 | 32.2 | 41.8 | 0.00 | 0.00 | 0.00 | 32 | 1007.9 |
| 20260505183040 | 28 | 153 | 22.5 | 40.2 | 0.00 | 0.00 | 0.00 | 31 | 1007.9 |
| 20260505182531 | 28 | 252 | 19.3 | 38.6 | 0.00 | 0.00 | 0.00 | 33 | 1008.1 |
| 20260505182026 | 28 | 195 | 14.5 | 30.6 | 0.00 | 0.00 | 0.00 | 33 | 1008.2 |
| 20260505181539 | 28 | 221 | 16.1 | 27.4 | 0.00 | 0.00 | 0.00 | 32 | 1008.2 |
| 20260505181033 | 28 | 219 | 14.5 | 35.4 | 0.00 | 0.00 | 0.00 | 31 | 1008.1 |
| 20260505180552 | 28 | 227 | 14.5 | 35.4 | 0.00 | 0.00 | 0.00 | 32 | 1008.2 |
| 20260505180026 | 28 | 192 | 25.7 | 43.5 | 0.00 | 0.00 | 0.00 | 32 | 1008.3 |
| 20260505175538 | 28 | 196 | 16.1 | 41.8 | 0.00 | 0.00 | 0.00 | 33 | 1008.3 |
| 20260505175038 | 28 | 198 | 12.9 | 30.6 | 0.00 | 0.00 | 0.00 | 33 | 1008.4 |
| 20260505174541 | 28 | 194 | 19.3 | 38.6 | 0.00 | 0.00 | 0.00 | 33 | 1008.3 |
| 20260505174036 | 28 | 248 | 22.5 | 38.6 | 0.00 | 0.00 | 0.00 | 34 | 1008.5 |
| 20260505173554 | 28 | 181 | 22.5 | 33.8 | 0.00 | 0.00 | 0.00 | 32 | 1008.4 |
| 20260505173028 | 28 | 236 | 11.3 | 25.7 | 0.00 | 0.00 | 0.00 | 34 | 1008.4 |
| 20260505172605 | 28 | 207 | 11.3 | 30.6 | 0.00 | 0.00 | 0.00 | 34 | 1008.5 |
| 20260505172043 | 28 | 215 | 19.3 | 30.6 | 0.00 | 0.00 | 0.00 | 33 | 1008.6 |
| 20260505171537 | 27 | 207 | 11.3 | 25.7 | 0.00 | 0.00 | 0.00 | 35 | 1008.6 |
| 20260505171059 | 27 | 200 | 9.7 | 27.4 | 0.00 | 0.00 | 0.00 | 36 | 1008.6 |
| 20260505170556 | 27 | 189 | 17.7 | 27.4 | 0.00 | 0.00 | 0.00 | 35 | 1008.7 |
| 20260505170026 | 27 | 229 | 14.5 | 25.7 | 0.00 | 0.00 | 0.00 | 36 | 1008.8 |
| 20260505165544 | 27 | 210 | 16.1 | 27.4 | 0.00 | 0.00 | 0.00 | 35 | 1008.9 |
| 20260505165044 | 27 | 246 | 12.9 | 27.4 | 0.00 | 0.00 | 0.00 | 34 | 1008.9 |
| 20260505164542 | 27 | 184 | 17.7 | 35.4 | 0.00 | 0.00 | 0.00 | 34 | 1009.0 |
| 20260505164041 | 27 | 211 | 16.1 | 35.4 | 0.00 | 0.00 | 0.00 | 34 | 1009.1 |
| 20260505163534 | 27 | 236 | 19.3 | 35.4 | 0.00 | 0.00 | 0.00 | 33 | 1009.2 |
| 20260505163030 | 27 | 192 | 14.5 | 35.4 | 0.00 | 0.00 | 0.00 | 35 | 1009.2 |
| 20260505162541 | 27 | 217 | 12.9 | 30.6 | 0.00 | 0.00 | 0.00 | 36 | 1009.1 |
| 20260505162041 | 27 | 252 | 9.7 | 29.0 | 0.00 | 0.00 | 0.00 | 36 | 1009.3 |
| 20260505161539 | 27 | 215 | 12.9 | 35.4 | 0.00 | 0.00 | 0.00 | 35 | 1009.5 |
| 20260505161039 | 27 | 227 | 14.5 | 35.4 | 0.00 | 0.00 | 0.00 | 36 | 1009.6 |
| 20260505160539 | 27 | 199 | 14.5 | 33.8 | 0.00 | 0.00 | 0.00 | 37 | 1009.7 |
| 20260505153047 | 26 | 212 | 14.5 | 32.2 | 0.00 | 0.00 | 0.00 | 39 | 1009.9 |
| 20260505152542 | 26 | 181 | 9.7 | 29.0 | 0.00 | 0.00 | 0.00 | 41 | 1009.8 |
| 20260505152102 | 26 | 195 | 14.5 | 29.0 | 0.00 | 0.00 | 0.00 | 41 | 1009.8 |
| 20260505151600 | 25 | 215 | 9.7 | 22.5 | 0.00 | 0.00 | 0.00 | 44 | 1009.7 |
| 20260505151035 | 25 | 181 | 9.7 | 30.6 | 0.00 | 0.00 | 0.00 | 43 | 1009.8 |
| 20260505150526 | 25 | 184 | 19.3 | 29.0 | 0.00 | 0.00 | 0.00 | 42 | 1009.9 |
| 20260505140545 | 23 | 209 | 16.1 | 27.4 | 0.00 | 0.00 | 0.00 | 47 | 1010.0 |
| 20260505140105 | 22 | 195 | 16.1 | 30.6 | 0.00 | 0.00 | 0.00 | 48 | 1010.1 |
| 20260505125028 | 19 | 157 | 17.7 | 27.4 | 0.00 | 0.00 | 0.00 | 57 | 1010.4 |
| 20260505124543 | 19 | 162 | 20.9 | 27.4 | 0.00 | 0.00 | 0.00 | 57 | 1010.5 |
| 20260505124041 | 18 | 188 | 19.3 | 25.7 | 0.00 | 0.00 | 0.00 | 58 | 1010.5 |
| 20260505123531 | 18 | 167 | 16.1 | 25.7 | 0.00 | 0.00 | 0.00 | 59 | 1010.5 |
| 20260505123026 | 18 | 169 | 19.3 | 29.0 | 0.00 | 0.00 | 0.00 | 59 | 1010.6 |
| 20260505122605 | 18 | 175 | 14.5 | 29.0 | 0.00 | 0.00 | 0.00 | 60 | 1010.5 |
| 20260505122102 | 17 | 168 | 17.7 | 22.5 | 0.00 | 0.00 | 0.00 | 60 | 1010.6 |
| 20260505121541 | 17 | 171 | 14.5 | 20.9 | 0.00 | 0.00 | 0.00 | 61 | 1010.7 |
| 20260505121040 | 17 | 163 | 16.1 | 20.9 | 0.00 | 0.00 | 0.00 | 61 | 1010.6 |
| 20260505120534 | 17 | 168 | 19.3 | 20.9 | 0.00 | 0.00 | 0.00 | 61 | 1010.7 |
| 20260505120029 | 17 | 148 | 11.3 | 22.5 | 0.00 | 0.00 | 0.00 | 62 | 1010.6 |
| 20260505115604 | 17 | 143 | 16.1 | 22.5 | 0.00 | 0.00 | 0.00 | 62 | 1010.5 |
| 20260505115104 | 17 | 140 | 14.5 | 22.5 | 0.00 | 0.00 | 0.00 | 62 | 1010.6 |
| 20260505114536 | 16 | 176 | 12.9 | 22.5 | 0.00 | 0.00 | 0.00 | 64 | 1010.6 |
| 20260505114033 | 16 | 161 | 16.1 | 22.5 | 0.00 | 0.00 | 0.00 | 64 | 1010.6 |
| 20260505113529 | 16 | 169 | 11.3 | 17.7 | 0.00 | 0.00 | 0.00 | 65 | 1010.5 |
| 20260505113026 | 16 | 166 | 9.7 | 17.7 | 0.00 | 0.00 | 0.00 | 65 | 1010.4 |
| 20260505112602 | 16 | 141 | 11.3 | 16.1 | 0.00 | 0.00 | 0.00 | 66 | 1010.4 |
| 20260505112037 | 16 | 136 | 11.3 | 16.1 | 0.00 | 0.00 | 0.00 | 66 | 1010.4 |
| 20260505111531 | 15 | 169 | 9.7 | 16.1 | 0.00 | 0.00 | 0.00 | 66 | 1010.4 |
| 20260505111027 | 15 | 163 | 12.9 | 16.1 | 0.00 | 0.00 | 0.00 | 66 | 1010.3 |
| 20260505110543 | 15 | 142 | 9.7 | 16.1 | 0.00 | 0.00 | 0.00 | 67 | 1010.2 |
| 20260505102043 | 15 | 160 | 6.4 | 8.0 | 0.00 | 0.00 | 0.00 | 67 | 1010.1 |
| 20260505101535 | 15 | 174 | 4.8 | 9.7 | 0.00 | 0.00 | 0.00 | 67 | 1010.0 |
| 20260505101053 | 15 | 174 | 4.8 | 11.3 | 0.00 | 0.00 | 0.00 | 67 | 1010.0 |
| 20260505100604 | 15 | 165 | 9.7 | 11.3 | 0.00 | 0.00 | 0.00 | 67 | 1010.0 |
| 20260505100036 | 15 | 177 | 8.0 | 11.3 | 0.00 | 0.00 | 0.00 | 67 | 1009.9 |
| 20260505095553 | 15 | 183 | 6.4 | 11.3 | 0.00 | 0.00 | 0.00 | 67 | 1010.0 |
| 20260505095026 | 15 | 196 | 4.8 | 11.3 | 0.00 | 0.00 | 0.00 | 66 | 1010.0 |
| 20260505094540 | 15 | 181 | 6.4 | 9.7 | 0.00 | 0.00 | 0.00 | 66 | 1009.9 |
| 20260505094041 | 15 | 168 | 8.0 | 11.3 | 0.00 | 0.00 | 0.00 | 66 | 1009.6 |
| 20260505093559 | 15 | 173 | 8.0 | 11.3 | 0.00 | 0.00 | 0.00 | 65 | 1009.6 |
| 20260505093039 | 15 | 169 | 8.0 | 16.1 | 0.00 | 0.00 | 0.00 | 65 | 1009.5 |
| 20260505092557 | 15 | 167 | 11.3 | 16.1 | 0.00 | 0.00 | 0.00 | 65 | 1009.5 |
| 20260505092032 | 15 | 172 | 11.3 | 14.5 | 0.00 | 0.00 | 0.00 | 65 | 1009.5 |
| 20260505091524 | 15 | 167 | 11.3 | 14.5 | 0.00 | 0.00 | 0.00 | 65 | 1009.5 |
| 20260505091043 | 16 | 163 | 6.4 | 11.3 | 0.00 | 0.00 | 0.00 | 65 | 1009.5 |
| 20260505090540 | 16 | 155 | 9.7 | 11.3 | 0.00 | 0.00 | 0.00 | 64 | 1009.5 |
| 20260505090035 | 16 | 173 | 8.0 | 11.3 | 0.00 | 0.00 | 0.00 | 64 | 1009.5 |
| 20260505085530 | 16 | 165 | 8.0 | 12.9 | 0.00 | 0.00 | 0.00 | 63 | 1009.5 |
| 20260505085025 | 16 | 169 | 6.4 | 12.9 | 0.00 | 0.00 | 0.00 | 63 | 1009.5 |
| 20260505084536 | 16 | 182 | 8.0 | 12.9 | 0.00 | 0.00 | 0.00 | 63 | 1009.5 |
| 20260505084032 | 16 | 177 | 6.4 | 16.1 | 0.00 | 0.00 | 0.00 | 62 | 1009.5 |
| 20260505083525 | 16 | 180 | 9.7 | 16.1 | 0.00 | 0.00 | 0.00 | 62 | 1009.5 |
| 20260505083043 | 16 | 177 | 11.3 | 17.7 | 0.00 | 0.00 | 0.00 | 62 | 1009.3 |
| 20260505082603 | 16 | 159 | 11.3 | 22.5 | 0.00 | 0.00 | 0.00 | 62 | 1009.3 |
| 20260505082036 | 16 | 170 | 14.5 | 20.9 | 0.00 | 0.00 | 0.00 | 62 | 1009.3 |
| 20260505081529 | 16 | 165 | 16.1 | 24.1 | 0.00 | 0.00 | 0.00 | 61 | 1009.2 |
| 20260505081047 | 16 | 177 | 14.5 | 22.5 | 0.00 | 0.00 | 0.00 | 61 | 1009.2 |
| 20260505080543 | 16 | 190 | 17.7 | 27.4 | 0.00 | 0.00 | 0.00 | 61 | 1009.2 |
| 20260505080040 | 16 | 159 | 19.3 | 27.4 | 0.00 | 0.00 | 0.00 | 61 | 1009.1 |
| 20260505075530 | 16 | 155 | 17.7 | 20.9 | 0.00 | 0.00 | 0.00 | 61 | 1009.2 |
| 20260505075048 | 16 | 182 | 14.5 | 17.7 | 0.00 | 0.00 | 0.00 | 62 | 1009.1 |
| 20260505074543 | 16 | 163 | 16.1 | 19.3 | 0.00 | 0.00 | 0.00 | 62 | 1009.0 |
| 20260505074038 | 16 | 171 | 12.9 | 17.7 | 0.00 | 0.00 | 0.00 | 63 | 1009.0 |
| 20260505073540 | 16 | 182 | 12.9 | 17.7 | 0.00 | 0.00 | 0.00 | 63 | 1008.9 |
| 20260505073041 | 16 | 173 | 11.3 | 17.7 | 0.00 | 0.00 | 0.00 | 63 | 1008.9 |
| 20260505072532 | 16 | 169 | 11.3 | 17.7 | 0.00 | 0.00 | 0.00 | 63 | 1008.9 |
| 20260505072027 | 16 | 167 | 11.3 | 16.1 | 0.00 | 0.00 | 0.00 | 64 | 1008.9 |
| 20260505071604 | 16 | 161 | 11.3 | 16.1 | 0.00 | 0.00 | 0.00 | 64 | 1008.9 |
| 20260505071043 | 16 | 167 | 11.3 | 14.5 | 0.00 | 0.00 | 0.00 | 64 | 1008.9 |
| 20260505070540 | 16 | 170 | 12.9 | 14.5 | 0.00 | 0.00 | 0.00 | 64 | 1008.8 |
| 20260505070043 | 16 | 149 | 11.3 | 14.5 | 0.00 | 0.00 | 0.00 | 65 | 1008.8 |
| 20260505065534 | 16 | 161 | 9.7 | 14.5 | 0.00 | 0.00 | 0.00 | 65 | 1008.8 |
| 20260505065028 | 16 | 155 | 9.7 | 14.5 | 0.00 | 0.00 | 0.00 | 65 | 1008.9 |
| 20260505064543 | 16 | 145 | 8.0 | 11.3 | 0.00 | 0.00 | 0.00 | 65 | 1008.9 |
| 20260505064041 | 16 | 173 | 6.4 | 9.7 | 0.00 | 0.00 | 0.00 | 65 | 1008.9 |
| 20260505063532 | 16 | 173 | 8.0 | 9.7 | 0.00 | 0.00 | 0.00 | 64 | 1009.1 |
| 20260505063026 | 16 | 172 | 9.7 | 12.9 | 0.00 | 0.00 | 0.00 | 64 | 1009.1 |
| 20260505062603 | 16 | 180 | 9.7 | 12.9 | 0.00 | 0.00 | 0.00 | 64 | 1009.2 |
| 20260505062044 | 16 | 179 | 11.3 | 14.5 | 0.00 | 0.00 | 0.00 | 63 | 1009.1 |
| 20260505061541 | 16 | 181 | 9.7 | 16.1 | 0.00 | 0.00 | 0.00 | 63 | 1009.2 |
| 20260505061036 | 17 | 146 | 9.7 | 16.1 | 0.00 | 0.00 | 0.00 | 63 | 1009.2 |
| 20260505060527 | 16 | 172 | 9.7 | 14.5 | 0.00 | 0.00 | 0.00 | 63 | 1009.2 |
| 20260505060025 | 17 | 148 | 9.7 | 14.5 | 0.00 | 0.00 | 0.00 | 63 | 1009.4 |
| 20260505055542 | 17 | 180 | 8.0 | 16.1 | 0.00 | 0.00 | 0.00 | 63 | 1009.3 |
| 20260505055038 | 17 | 161 | 11.3 | 16.1 | 0.00 | 0.00 | 0.00 | 63 | 1009.3 |
| 20260505054526 | 17 | 140 | 8.0 | 14.5 | 0.00 | 0.00 | 0.00 | 63 | 1009.2 |
| 20260505054045 | 17 | 139 | 9.7 | 16.1 | 0.00 | 0.00 | 0.00 | 63 | 1009.3 |
| 20260505053538 | 17 | 166 | 11.3 | 16.1 | 0.00 | 0.00 | 0.00 | 63 | 1009.2 |
| 20260505053056 | 17 | 151 | 9.7 | 14.5 | 0.00 | 0.00 | 0.00 | 62 | 1009.4 |
| 20260505052526 | 17 | 152 | 9.7 | 17.7 | 0.00 | 0.00 | 0.00 | 61 | 1009.4 |
| 20260505052041 | 17 | 169 | 9.7 | 24.1 | 0.00 | 0.00 | 0.00 | 61 | 1009.3 |
| 20260505051601 | 17 | 165 | 11.3 | 24.1 | 0.00 | 0.00 | 0.00 | 61 | 1009.4 |
| 20260505051031 | 17 | 153 | 16.1 | 24.1 | 0.00 | 0.00 | 0.00 | 61 | 1009.4 |
| 20260505050524 | 17 | 157 | 14.5 | 19.3 | 0.00 | 0.00 | 0.00 | 60 | 1009.3 |